Weather in Mayaki

Ukraine / Odesa District     47°26′26″N   29°33′49″E
temp.,
°C
wind,
m/s
gust,
m/s
humid.,
%
clouds,
%
prec.,
mm/h
press.,
hPa
HPBL,
m
20 april, tue
tue2000:00+9ne3576100 0.1 1012172
03:00+7ne368699 0.1 1011151
06:00+6ne3684100 0.1 1010161
09:00+9nne5868100 0.1 1010559
12:00+12n5648100 0.0 10091872
15:00+13nnw5645100 0.1 10091996
18:00+13nw565327 0.1 10091427
21:00+9w34685 0.1 101166
21 april, wed
wed2100:00+7w35765 0.0 101177
03:00+7wsw3887100 0.0 1012200
06:00+6wsw339252 0.0 101254
09:00+10wnw356995 0.0 1014439
12:00+14w455447 0.6 10141402
15:00+15w564691 1.6 10142159
18:00+13wsw3460100 0.1 1014115
21:00+12sw336199 0.1 101551
22 april, thu
thu2200:00+10s33625 0.0 101633
03:00+8s33703 0.0 101627
06:00+8ssw33775 0.0 101627
09:00+13ssw33613 0.0 1017310
12:00+17ssw44465 0.0 10171449
15:00+18sw453873 0.0 10172477
18:00+18ssw46427 0.0 1016897
21:00+14s51153100 0.0 1017305
23 april, fri
fri2300:00+12s4967100 0.1 1017191
03:00+10s411784 0.6 1017216
06:00+8s49850 0.0 1016165
09:00+13ssw710675 0.0 1016426
12:00+18ssw9115011 0.3 10151941
15:00+14w4771100 2.4 1014235
18:00+6nnw81490100 6.0 1018676
21:00+6n2585100 11.8 1021582
24 april, sat
sat2400:00+6w238711 0.0 1021193
03:00+4w39922 0.0 1021242
06:00+3wnw411875 0.0 1021326
09:00+6nw711604 0.0 10231212
12:00+9nw79370 0.0 10231744
15:00+11nw683812 0.0 10231911
18:00+11wnw354017 0.0 10221916
21:00+7ssw33515 0.0 102239